sat.trackr.live / text

‹ back to catalog

KUIPER-00053

NORAD 64513 · 2025-134P

PAYLOAD ACTIVE UNKNOWN

§ Identity

Operator
Country
US
Launch date
2025-06-23
Launch site
AFETR
Launch vehicle
Mass (kg)
RCS (m²)

External: N2YO · Heavens-Above · Gunter

§ Orbital elements

Epoch: 2026-09-21T21:24:39.667392Z

Period
97.18 min
Inclination
51.9002°
Eccentricity
0.0002485
Mean motion
14.81718311 rev/d
Perigee alt
622.2 km
Apogee alt
625.6 km
Semi-major
7,002.0 km
B*
2.2712e-4
RAAN
73.5098°
Arg perigee
125.1256°
Mean anomaly
234.9940°
Rev number
6,929

§ Raw data

KUIPER-000531 64513U 25134P   26264.89212578  .00001582  00000+0  22712-3 0  99982 64513  51.9002  73.5098 0002485 125.1256 234.9940 14.81718311 69293

JSON: /api/v1/satellites/64513 · /tle

For live sub-satellite position, see the globe view (requires WebGL).

§ Visibility from observer

Set your observer location to see the next 7 days of passes ≥ 10°. The values pass through the URL so the page stays shareable.

No JS? Fill the form by hand. The geolocation button needs JavaScript.